Whiteman AFB, MO

2:34 PM CST on December 05, 2019 (GMT -0600)
Whiteman Air Force Base

Weather History for KSZL - October, 2019

Change the Weather History Date:

Wednesday, October 30, 2019

  Actual Average Record
Temperature  
Mean Temperature 32 °F -  
Max Temperature 35 °F 59 °F 134 °F (2006)
Min Temperature 30 °F 42 °F 31 °F (2012)
Degree Days  
Heating Degree Days 32    
Moisture  
Dew Point 33 °F    
Average Humidity 100    
Maximum Humidity 100    
Minimum Humidity 100    
Precipitation  
Precipitation 0.50 in - - ()
Snow  
Snow 0.00 in - - ()
Snow Depth 0.00 in    
Sea Level Pressure  
Sea Level Pressure 30.15 in    
Wind  
Wind Speed 14 mph (North)    
Max Wind Speed 20 mph    
Max Gust Speed 24 mph    
Visibility 4 miles    
Events Rain , Snow    
Averages and records for this station are not official NWS values.
T = Trace of Precipitation, MM = Missing Value Source: NWS Daily Summary

Daily Weather History Graph

Daily Weather History Graph

Search for Another Location

Airport or City:

Astronomy

Oct. 30, 2019 Rise Set
Actual Time 7:38 AM CDT 6:16 PM CDT
Civil Twilight 7:11 AM CDT 6:43 PM CDT
Nautical Twilight 6:39 AM CDT 7:15 PM CDT
Astronomical Twilight 6:09 AM CDT 7:46 PM CDT
Moon 10:21 AM CDT (10/30) 8:26 PM CDT (10/30)
Length of Visible Light 11h 32m
Length of Day
10h 37m
Waxing Crescent, 9% of the Moon is Illuminated
Oct 30
Waxing Crescent
Nov 4
First Quarter
Nov 12
Full
Nov 19
Last Quarter
Nov 26
New

Hourly Weather History & Observations

Time (CDT) Temp. Windchill Dew Point Humidity Pressure Visibility Wind Dir Wind Speed Gust Speed Precip Events Conditions
12:56 AM 33.8 °F 24.8 °F 33.8 °F 100% 30.23 in 4.0 mi NNE 12.7 mph - 0.12 in Rain Rain
1:56 AM 33.8 °F 25.3 °F 33.8 °F 100% 30.21 in 4.0 mi NNE 11.5 mph - 0.15 in Rain Heavy Rain
2:56 AM 34.0 °F 25.5 °F 34.0 °F 100% 30.20 in 10.0 mi NNE 11.5 mph - 0.06 in Rain Light Rain
3:58 AM 34.0 °F 24.2 °F 34.0 °F 100% 30.19 in 4.0 mi NE 15.0 mph - 0.06 in Rain Rain
4:57 AM 34.0 °F 23.8 °F 34.0 °F 100% 30.18 in 4.0 mi NNE 16.1 mph 20.7 mph 0.02 in Rain Rain
5:57 AM 34.0 °F 24.6 °F 34.0 °F 100% 30.17 in 5.0 mi NNE 13.8 mph - 0.04 in   Light Drizzle
6:56 AM 34.0 °F 24.6 °F 34.0 °F 100% 30.17 in 5.0 mi NNE 13.8 mph - 0.00 in Rain Light Rain
7:57 AM 33.8 °F 24.3 °F 33.8 °F 100% 30.15 in 2.5 mi NNE 13.8 mph - N/A   Overcast
8:56 AM 34.3 °F 25.0 °F 34.3 °F 100% 30.18 in 3.0 mi North 13.8 mph - 0.00 in   Overcast
9:28 AM 33.8 °F 23.9 °F 33.8 °F 100% 30.16 in 2.5 mi NNE 15.0 mph - N/A   Light Drizzle
9:57 AM 34.2 °F 24.4 °F 34.2 °F 100% 30.16 in 6.0 mi North 15.0 mph 20.7 mph 0.00 in   Light Drizzle
9:59 AM 33.8 °F 24.3 °F 33.8 °F 100% 30.13 in 3.0 mi North 13.8 mph - N/A   Light Drizzle
10:16 AM 33.8 °F 23.9 °F 33.8 °F 100% 30.16 in 6.0 mi North 15.0 mph - N/A   Overcast
10:26 AM 33.8 °F 23.9 °F 33.8 °F 100% 30.16 in 6.0 mi NNE 15.0 mph - N/A   Overcast
10:38 AM 33.8 °F 23.9 °F 33.8 °F 100% 30.15 in 6.0 mi NNE 15.0 mph - N/A   Light Drizzle
10:56 AM 34.7 °F 24.7 °F 34.7 °F 100% 30.14 in 2.5 mi North 16.1 mph 24.2 mph 0.01 in Rain Light Rain
11:56 AM 34.9 °F 24.2 °F 34.9 °F 100% 30.15 in 2.5 mi North 18.4 mph - 0.00 in Rain Light Rain
12:56 PM 35.4 °F 24.9 °F 35.4 °F 100% 30.11 in 3.0 mi NNE 18.4 mph 24.2 mph 0.01 in Rain Light Rain
1:56 PM 35.6 °F 25.9 °F 35.6 °F 100% 30.11 in 2.0 mi NNE 16.1 mph 21.9 mph 0.01 in   Light Drizzle
2:36 PM 33.8 °F 22.5 °F 33.8 °F 100% 30.10 in 4.0 mi North 19.6 mph 24.2 mph N/A Rain Light Rain
2:56 PM 34.2 °F 24.4 °F 34.2 °F 100% 30.10 in 3.0 mi North 15.0 mph - 0.00 in   Light Drizzle
3:55 PM 33.8 °F 24.8 °F 33.8 °F 100% 30.11 in 3.0 mi NNE 12.7 mph 20.7 mph N/A   Light Drizzle
4:56 PM 33.8 °F 26.4 °F 33.8 °F 100% 30.14 in 3.0 mi NE 9.2 mph - N/A   Ice Pellets
5:31 PM 33.8 °F 26.4 °F 33.8 °F 100% 30.14 in 2.0 mi NE 9.2 mph - N/A   Ice Pellets
6:01 PM 32.0 °F 23.0 °F 32.0 °F 100% 30.11 in 2.0 mi NNW 11.5 mph - 0.01 in Snow Light Snow
6:59 PM 31.3 °F 21.1 °F 31.3 °F 100% 30.11 in 2.0 mi North 13.8 mph - 0.00 in Snow Light Snow
7:57 PM 30.6 °F 20.2 °F 30.6 °F 100% 30.13 in 1.5 mi North 13.8 mph - 0.00 in Snow Light Snow
8:52 PM 30.6 °F 20.7 °F 30.6 °F 100% 30.13 in 2.0 mi NNW 12.7 mph - 0.00 in Snow Light Snow
9:56 PM 30.6 °F 20.7 °F 30.6 °F 100% 30.14 in 2.0 mi NNW 12.7 mph - 0.00 in Snow Light Snow
10:56 PM 30.6 °F 21.2 °F 30.6 °F 100% 30.16 in 1.5 mi NW 11.5 mph - 0.01 in Snow Light Snow
11:55 PM 30.4 °F 20.5 °F 30.4 °F 100% 30.16 in 2.0 mi NNW 12.7 mph - 0.00 in Snow Light Snow